Aswan, Egypt

7:21 AM EET on December 18, 2017 (GMT +0200)
Aswan

Weather History for HESN - February, 2013

Change the Weather History Date:

Friday, February 15, 2013

  Actual Average Record
Temperature  
Mean Temperature 68 °F -  
Max Temperature 79 °F 78 °F 95 °F (2012)
Min Temperature 56 °F 55 °F 41 °F (2004)
Cooling Degree Days 2    
Growing Degree Days 18 (Base 50)    
Moisture  
Dew Point 27 °F    
Average Humidity 21    
Maximum Humidity 31    
Minimum Humidity 9    
Precipitation  
Precipitation 0.00 in 0.00 in - ()
Sea Level Pressure  
Sea Level Pressure 30.02 in    
Wind  
Wind Speed 8 mph ()    
Max Wind Speed 17 mph    
Max Gust Speed -    
Visibility 5.6 miles    
Events      
Averages and records for this station are not official NWS values.
T = Trace of Precipitation, MM = Missing Value Source: Averaged Metar Reports

Daily Weather History Graph

Daily Weather History Graph

Search for Another Location

Airport or City:

Trip Planner

Search our weather history database for the weather conditions in past years. The results will help you decide how hot, cold, wet, or windy it might be!

Date:

Astronomy

Feb. 15, 2013 Rise Set
Actual Time 6:22 AM EET 5:44 PM EET
Civil Twilight 5:59 AM EET 6:07 PM EET
Nautical Twilight 5:32 AM EET 6:33 PM EET
Astronomical Twilight 5:05 AM EET 7:00 PM EET
Moon 9:27 AM EET (2/15) 10:41 PM EET (2/15)
Length of Visible Light 12h 08m
Length of Day
11h 22m
Waxing Crescent, 27% of the Moon is Illuminated
Feb 15
Waxing Crescent
Feb 17
First Quarter
Feb 25
Full
Mar 4
Last Quarter
Mar 11
New

Hourly Weather History & Observations

Time (EET) Temp. Dew Point Humidity Pressure Visibility Wind Dir Wind Speed Gust Speed Precip Events Conditions
12:00 AM 66.2 °F 28.4 °F 24% 29.95 in - North 4.6 mph - N/A   Clear
1:00 AM 64.4 °F 28.4 °F 26% 29.95 in - North 6.9 mph - N/A   Clear
2:00 AM 63 °F 29 °F 16% 29.95 in 6 mi North 5.8 mph - -  
2:00 AM 62.6 °F 28.4 °F 27% 29.95 in - North 5.8 mph - N/A   Clear
3:00 AM 60.8 °F 28.4 °F 29% 29.95 in - North 4.6 mph - N/A   Clear
4:00 AM 59.0 °F 28.4 °F 31% 29.95 in - North 4.6 mph - N/A   Clear
5:00 AM 59.0 °F 28.4 °F 31% 29.98 in - North 6.9 mph - N/A   Clear
6:00 AM 57.2 °F 26.6 °F 31% 30.01 in - North 5.8 mph - N/A   Clear
7:00 AM 57.2 °F 24.8 °F 29% 30.01 in - North 5.8 mph - N/A   Clear
8:00 AM 60 °F 24 °F 14% 30.02 in 6 mi North 6.9 mph - -  
8:00 AM 60.8 °F 24.8 °F 25% 30.01 in - North 6.9 mph - N/A   Clear
9:00 AM 64.4 °F 26.6 °F 24% 30.04 in - North 6.9 mph - N/A   Clear
10:00 AM 69.8 °F 26.6 °F 20% 30.04 in - North 13.8 mph - N/A   Clear
11:00 AM 73.4 °F 30.2 °F 20% 30.06 in - North 15.0 mph - N/A   Clear
12:00 PM 75.2 °F 30.2 °F 19% 30.06 in - North 13.8 mph - N/A   Clear
1:00 PM 78.8 °F 28.4 °F 16% 30.04 in 5.0 mi North 16.1 mph - N/A   Unknown
2:00 PM 78.8 °F 30.2 °F 17% 30.01 in - North 11.5 mph - N/A   Clear
3:00 PM 78.8 °F 30.2 °F 17% 30.01 in - North 15.0 mph - N/A   Clear
4:00 PM 77.0 °F 30.2 °F 18% 30.01 in - North 16.1 mph - N/A   Clear
5:00 PM 75.2 °F 26.6 °F 17% 30.04 in - North 17.3 mph - N/A   Clear
6:00 PM 71.6 °F 24.8 °F 17% 30.04 in 5.0 mi North 17.3 mph - N/A   Unknown
7:00 PM 68.0 °F 23.0 °F 18% 30.06 in - North 13.8 mph - N/A   Clear
8:00 PM 66 °F 22 °F 9% 30.09 in 6 mi North 11.5 mph - -  
8:00 PM 66.2 °F 21.2 °F 18% 30.09 in - North 11.5 mph - N/A   Clear
9:00 PM 64.4 °F 21.2 °F 19% 30.09 in - North 11.5 mph - N/A   Clear
10:00 PM 62.6 °F 23.0 °F 22% 30.12 in - North 10.4 mph - N/A   Clear
11:00 PM 60.8 °F 23.0 °F 23% 30.09 in - North 9.2 mph - N/A   Clear